Weather History for Grafton, ND

Change the Weather History Date:

Sunday, December 9, 2012

  Actual Average Record
Temperature  
Mean Temperature -6 °F -  
Max Temperature 0 °F 21 °F 51 °F (1990)
Min Temperature -11 °F 5 °F -23 °F (1977)
Degree Days  
Heating Degree Days 70    
Moisture  
Dew Point -9 °F    
Average Humidity 77    
Maximum Humidity 85    
Minimum Humidity 65    
Precipitation  
Precipitation 0.00 in - - ()
Sea Level Pressure  
Sea Level Pressure 30.32 in    
Wind  
Wind Speed 16 mph (NNW)    
Max Wind Speed 22 mph    
Max Gust Speed 29 mph    
Visibility 7 miles    
Events      
Averages and records for this station are not official NWS values.
T = Trace of Precipitation, MM = Missing Value Source: NWS Daily Summary

Daily Weather History Graph

Daily Weather History Graph

Search for Another Location

Airport:

Trip Planner

Search our weather history database for the weather conditions in past years. The results will help you decide how hot, cold, wet, or windy it might be!

Date:

Astronomy

Dec. 09, 2012 Rise Set
Actual Time 8:09 AM CST 4:34 PM CST
Civil Twilight 7:32 AM CST 5:11 PM CST
Nautical Twilight 6:53 AM CST 5:50 PM CST
Astronomical Twilight 6:15 AM CST 6:28 PM CST
Moon 3:28 AM CST (12/9) 1:55 PM CST (12/9)
Length of Visible Light 9h 38m
Length of Day
8h 25m
Waning Crescent, 18% of the Moon is Illuminated
Dec 9
Waning Crescent
Dec 13
New
Dec 19
First Quarter
Dec 28
Full
Jan 4
Last Quarter

Hourly Weather History & Observations

Time (CST) Temp. Windchill Dew Point Humidity Pressure Visibility Wind Dir Wind Speed Gust Speed Precip Events Conditions
12:15 AM -0.4 °F -22.8 °F -4.0 °F 85% 30.22 in 9.0 mi North 20.7 mph 26.5 mph N/A   Mostly Cloudy
12:35 AM -0.4 °F -22.3 °F -4.0 °F 85% 30.22 in 10.0 mi North 19.6 mph 28.8 mph N/A   Mostly Cloudy
1:15 AM -0.4 °F -21.7 °F -4.0 °F 85% 30.24 in 10.0 mi North 18.4 mph 24.2 mph N/A   Overcast
1:35 AM -0.4 °F -23.3 °F -5.8 °F 78% 30.24 in 10.0 mi North 21.9 mph 25.3 mph N/A   Overcast
1:55 AM -0.4 °F -23.3 °F -5.8 °F 78% 30.25 in 10.0 mi North 21.9 mph 28.8 mph N/A   Overcast
2:15 AM -0.4 °F -22.8 °F -5.8 °F 78% 30.26 in 10.0 mi North 20.7 mph 26.5 mph N/A   Overcast
2:35 AM -0.4 °F -22.8 °F -5.8 °F 78% 30.27 in 10.0 mi North 20.7 mph 26.5 mph N/A   Mostly Cloudy
2:55 AM -0.4 °F -22.8 °F -7.6 °F 72% 30.27 in 10.0 mi North 20.7 mph - N/A   Partly Cloudy
3:15 AM -2.2 °F -24.1 °F -7.6 °F 78% 30.28 in 10.0 mi North 18.4 mph 24.2 mph N/A   Scattered Clouds
3:35 AM -2.2 °F -22.9 °F -7.6 °F 78% 30.28 in 10.0 mi North 16.1 mph 23.0 mph N/A   Mostly Cloudy
3:55 AM -2.2 °F -23.5 °F -7.6 °F 78% 30.28 in 10.0 mi North 17.3 mph 24.2 mph N/A   Partly Cloudy
4:15 AM -2.2 °F -24.7 °F -7.6 °F 78% 30.28 in 10.0 mi North 19.6 mph 26.5 mph N/A   Clear
4:35 AM -2.2 °F -24.1 °F -9.4 °F 71% 30.29 in 10.0 mi North 18.4 mph 25.3 mph N/A   Clear
4:55 AM -4.0 °F -27.6 °F -7.6 °F 85% 30.30 in 5.0 mi North 20.7 mph 25.3 mph N/A   Scattered Clouds
5:15 AM -4.0 °F -25.8 °F -7.6 °F 85% 30.31 in 5.0 mi North 17.3 mph 25.3 mph N/A   Mostly Cloudy
5:35 AM -2.2 °F -24.7 °F -7.6 °F 78% 30.31 in 4.0 mi North 19.6 mph - N/A   Haze
6:15 AM -4.0 °F -27.0 °F -7.6 °F 85% 30.33 in 2.5 mi North 19.6 mph 26.5 mph N/A   Overcast
6:35 AM -2.2 °F -23.5 °F -7.6 °F 78% 30.34 in 3.0 mi North 17.3 mph - N/A   Haze
6:55 AM -0.4 °F -21.7 °F -5.8 °F 78% 30.35 in 3.0 mi North 18.4 mph 24.2 mph N/A   Haze
7:15 AM -2.2 °F -24.1 °F -7.6 °F 78% 30.37 in 3.0 mi North 18.4 mph 24.2 mph N/A   Haze
7:35 AM -2.2 °F -23.5 °F -7.6 °F 78% 30.37 in 2.5 mi North 17.3 mph 25.3 mph N/A   Haze
7:55 AM -2.2 °F -24.7 °F -5.8 °F 85% 30.38 in 2.5 mi North 19.6 mph 25.3 mph N/A   Overcast
8:15 AM -0.4 °F -21.7 °F -4.0 °F 85% 30.38 in 1.2 mi North 18.4 mph 24.2 mph N/A   Overcast
8:35 AM -0.4 °F -21.2 °F -5.8 °F 78% 30.38 in 1.8 mi North 17.3 mph 23.0 mph N/A   Haze
8:55 AM -0.4 °F -20.5 °F -5.8 °F 78% 30.39 in 2.5 mi North 16.1 mph 23.0 mph N/A   Haze
9:15 AM -0.4 °F -21.7 °F -5.8 °F 78% 30.40 in 1.2 mi North 18.4 mph 25.3 mph N/A   Haze
9:35 AM -2.2 °F -23.5 °F -7.6 °F 78% 30.41 in 1.2 mi North 17.3 mph 21.9 mph N/A   Haze
9:55 AM -2.2 °F -24.7 °F -7.6 °F 78% 30.41 in 1.0 mi North 19.6 mph - N/A   Haze
10:15 AM -2.2 °F -22.9 °F -7.6 °F 78% 30.41 in 1.0 mi North 16.1 mph 20.7 mph N/A   Haze
10:35 AM -2.2 °F -22.9 °F -7.6 °F 78% 30.41 in 1.5 mi North 16.1 mph 21.9 mph N/A   Haze
10:55 AM -2.2 °F -23.5 °F -7.6 °F 78% 30.41 in 1.2 mi North 17.3 mph 26.5 mph N/A   Haze
11:15 AM -2.2 °F -23.5 °F -7.6 °F 78% 30.41 in 1.5 mi North 17.3 mph 23.0 mph N/A   Haze
11:35 AM -2.2 °F -24.1 °F -7.6 °F 78% 30.40 in 1.5 mi North 18.4 mph - N/A   Haze
11:55 AM -2.2 °F -22.9 °F -7.6 °F 78% 30.40 in 1.5 mi North 16.1 mph - N/A   Haze
12:15 PM -2.2 °F -22.9 °F -7.6 °F 78% 30.39 in 2.0 mi North 16.1 mph - N/A   Haze
12:35 PM -2.2 °F -22.2 °F -7.6 °F 78% 30.39 in 2.5 mi NNW 15.0 mph - N/A   Haze
12:55 PM -2.2 °F -22.2 °F -7.6 °F 78% 30.38 in 2.0 mi NNW 15.0 mph - N/A   Haze
1:15 PM -2.2 °F -22.2 °F -7.6 °F 78% 30.38 in 3.0 mi NNW 15.0 mph - N/A   Haze
1:35 PM -2.2 °F -22.9 °F -7.6 °F 78% 30.37 in 4.0 mi NNW 16.1 mph - N/A   Haze
1:55 PM -2.2 °F -22.2 °F -7.6 °F 78% 30.36 in 3.0 mi NNW 15.0 mph - N/A   Haze
2:15 PM -2.2 °F -22.9 °F -7.6 °F 78% 30.35 in 5.0 mi NNW 16.1 mph 20.7 mph N/A   Haze
2:35 PM -0.4 °F -19.2 °F -7.6 °F 72% 30.35 in 7.0 mi NNW 13.8 mph - N/A   Mostly Cloudy
2:55 PM -0.4 °F -19.2 °F -7.6 °F 72% 30.34 in 10.0 mi NNW 13.8 mph - N/A   Partly Cloudy
3:15 PM -0.4 °F -18.4 °F -7.6 °F 72% 30.34 in 10.0 mi NNW 12.7 mph 20.7 mph N/A   Clear
3:35 PM -2.2 °F -22.9 °F -9.4 °F 71% 30.34 in 10.0 mi NNW 16.1 mph 21.9 mph N/A   Clear
3:55 PM -2.2 °F -20.7 °F -11.2 °F 66% 30.34 in 10.0 mi NNW 12.7 mph - N/A   Clear
4:15 PM -2.2 °F -21.5 °F -11.2 °F 66% 30.34 in 10.0 mi NNW 13.8 mph - N/A   Clear
4:35 PM -2.2 °F -21.5 °F -11.2 °F 66% 30.34 in 10.0 mi NNW 13.8 mph - N/A   Clear
4:55 PM -4.0 °F -20.2 °F -13.0 °F 65% 30.33 in 10.0 mi NNW 9.2 mph - N/A   Clear
5:15 PM -4.0 °F -19.0 °F -13.0 °F 65% 30.33 in 10.0 mi NNW 8.1 mph - N/A   Clear
5:35 PM -4.0 °F -19.0 °F -11.2 °F 71% 30.33 in 10.0 mi NNW 8.1 mph - N/A   Clear
5:55 PM -4.0 °F -20.2 °F -11.2 °F 71% 30.32 in 10.0 mi NNW 9.2 mph - N/A   Clear
6:15 PM -4.0 °F -19.0 °F -11.2 °F 71% 30.32 in 10.0 mi NNW 8.1 mph - N/A   Clear
6:35 PM -5.8 °F -16.7 °F - N/A% 30.32 in 10.0 mi NNW 4.6 mph - N/A   Clear
6:55 PM -5.8 °F -14.5 °F - N/A% 30.31 in 10.0 mi NNW 3.5 mph - N/A   Clear
7:15 PM -5.8 °F - -11.2 °F 77% 30.31 in 10.0 mi Calm Calm - N/A   Clear
7:35 PM -5.8 °F - -11.2 °F 77% 30.29 in 10.0 mi Calm Calm - N/A   Clear
7:55 PM -9.4 °F - -13.0 °F 84% 30.28 in 10.0 mi Calm Calm - N/A   Clear
8:15 PM -9.4 °F -22.7 °F -13.0 °F 84% 30.27 in 10.0 mi SE 5.8 mph - N/A   Clear
8:35 PM -9.4 °F -20.9 °F -13.0 °F 84% 30.27 in 10.0 mi South 4.6 mph - N/A   Clear
8:55 PM -9.4 °F -18.6 °F -13.0 °F 84% 30.26 in 10.0 mi South 3.5 mph - N/A   Clear
9:15 PM -11.2 °F -20.6 °F -16.6 °F 77% 30.25 in 10.0 mi South 3.5 mph - N/A   Clear
9:35 PM -11.2 °F -20.6 °F -14.8 °F 84% 30.24 in 10.0 mi South 3.5 mph - N/A   Clear
10:15 PM -11.2 °F -24.8 °F -14.8 °F 84% 30.23 in 10.0 mi South 5.8 mph - N/A   Clear
10:35 PM -11.2 °F -23.0 °F -16.6 °F 77% 30.22 in 10.0 mi South 4.6 mph - N/A   Clear
10:55 PM -11.2 °F -26.4 °F -16.6 °F 77% 30.20 in 10.0 mi SSE 6.9 mph - N/A   Clear
11:15 PM -11.2 °F -27.8 °F -16.6 °F 77% 30.19 in 10.0 mi South 8.1 mph - N/A   Clear
11:35 PM -11.2 °F -26.4 °F -16.6 °F 77% 30.18 in 10.0 mi South 6.9 mph - N/A   Clear
11:55 PM -11.2 °F -26.4 °F -16.6 °F 77% 30.17 in 10.0 mi South 6.9 mph - N/A   Clear